Regional Weather Roundup
Issued by NWS

Home | Current Version | Previous Version | Graphics & Text | Print | Product List | Glossary On
Versions: 1 2 3 4 5 6 7 8 9 10 11 12 13 14 15 16 17 18 19 20 21 22 23 24 25 26 27 28 29 30 31 32 33 34 35 36 37 38 39 40 41 42 43 44 45 46 47 48 49 50
000
ASUS44 KMEG 222110
RWRTN
TENNESSEE HOURLY STATE WEATHER ROUNDUP
NATIONAL WEATHER SERVICE MEMPHIS TN
400 PM CDT TUE AUG 22 2017

TNZ002-004-019-021-049-052-054-088>092-222200-
WEST TENNESSEE

CITY           SKY/WX    TMP DP  RH WIND       PRES   REMARKS
MEMPHIS INTL   MOSUNNY   92  74  55 SW12G22   29.95F HX 101
NWS MEMPHIS      N/A     93 N/A N/A MISG        N/A
JACKSON        PTSUNNY   93  75  55 SW12G22   29.93F HX 104
DYERSBURG      PTSUNNY   84  81  89 VRB5      29.93F HX  98
SOMERVILLE     MOSUNNY   91  73  55 SW12G23   29.94F HX 100
COVINGTON      SUNNY     91  73  55 W12G23    29.93F HX 100
BOLIVAR        SUNNY     91  73  55 SW9G16    29.92F HX 100
PARIS          PTSUNNY   86  73  66 NW10G17   29.90F HX  93
HUNTINGDON     MOSUNNY   91  75  59 SW12G17   29.89F HX 102
LEXINGTON      SUNNY     91  70  49 SW15G23   29.91F HX  97
SELMER         SUNNY     90  72  55 SW13G22   29.93F HX  96
SAVANNAH       SUNNY     93  70  46 SW14G21   29.93F HX  99
$$

TNZ008-025-027-028-033-062-065-066-222200-
NORTH MIDDLE TENNESSEE

CITY           SKY/WX    TMP DP  RH WIND       PRES   REMARKS
NASHVILLE      CLOUDY    91  71  51 SW9G17    29.94F HX  97
PORTLAND       SUNNY     88  73  62 SW9       29.94S HX  96
CLARKSVILLE    PTSUNNY   88  71  57 SW9       29.92F HX  94
SMYRNA         MOSUNNY   92  73  53 SW15G21   29.94F HX 100
COOKEVILLE     SUNNY     77  72  83 N3        29.99F
GALLATIN       MOSUNNY   90  72  55 VRB5G13   29.96S HX  96
CROSSVILLE     SUNNY     87  65  47 VRB7G17   30.04F
$$

TNZ061-075-076-078-094-096-097-222200-
SOUTH MIDDLE TENNESSEE

CITY           SKY/WX    TMP DP  RH WIND       PRES   REMARKS
FAYETTEVILLE   SUNNY     90  70  51 SW8G17    29.99F HX  95
TULLAHOMA      SUNNY     90  64  43 SW13      30.01F HX  91
WINCHESTER     MOSUNNY   91  72  52 SW9       30.00F HX  98
MCMINNVILLE    SUNNY     90  72  55 SW8       29.99F HX  96
COLUMBIA       SUNNY     90  73  58 S13G20    29.92F HX  98
SHELBYVILLE    MOSUNNY   90  70  51 S12G18    29.98S HX  95
$$

TNZ017-018-042-046-047-222200-
NORTHEAST TENNESSEE

CITY           SKY/WX    TMP DP  RH WIND       PRES   REMARKS
TRI CITIES     MOSUNNY   89  65  44 SW13      30.01F HX  91
ELIZABETHTON   SUNNY     88  61  40 W8G15     30.02F
$$

TNZ012-013-036-069-073-074-222200-
CENTRAL EAST TENNESSEE

CITY           SKY/WX    TMP DP  RH WIND       PRES   REMARKS
KNOXVILLE      NOT AVBL
OAK RIDGE      MOSUNNY   91  66  43 VRB7      29.99F HX  93
DOWNTOWN KNOXV SUNNY     91  68  46 SW8G15    29.97F HX  95
GATLINBURG     MOSUNNY   93  61  33 W12       29.98F HX  93
MORRISTOWN     SUNNY     90  64  43 W9G16     30.00F HX  91
JACKSBORO      MOSUNNY   88  70  55 SW9       30.02F HX  92
$$

TNZ083-085-099-222200-
SOUTHEAST TENNESSEE

CITY           SKY/WX    TMP DP  RH WIND       PRES   REMARKS
CHATTANOOGA    MOSUNNY   93  62  35 SW12      29.99F HX  93
DAYTON         CLEAR     93  70  46 S8G16     29.96F HX  99
$$

SKY/WX REPORTED AS FAIR MEANS FEW OR NO CLOUDS BELOW
12 THOUSAND FEET.





USA.gov is the U.S. government's official web portal to all federal, state and local government web resources and services.